Wind_Speed
25 27 30 32 34 37 38 39 40 40 40 40 39 37 36 35 33 31 29 26 26 28 27 29 30 31 32 31 31 30 30 30 29 27 26 26 26 25 24 23 22 20 20
27 29 32 33 35 36 38 38 38 38 38 37 36 36 35 34 33 31 29 26 26 27 27 28 29 30 29 29 31 31 30 29 29 29 28 28 27 27 26 25 24 23 21
28 29 32 32 33 35 35 36 36 36 36 36 36 36 36 34 32 31 29 27 26 27 27 28 29 29 29 29 30 31 31 31 31 31 30 30 30 29 29 28 27 25 24
26 29 30 31 32 33 34 34 35 35 36 37 37 37 36 35 34 33 32 30 30 29 29 29 29 30 30 31 31 31 30 30 31 31 31 32 31 31 31 30 29 27 26
25 27 29 30 31 32 33 34 35 36 37 38 38 39 38 38 38 37 36 34 34 34 33 33 33 32 33 32 32 32 31 31 32 32 32 33 33 33 33 33 32 30 28
26 28 29 31 32 34 35 37 38 39 39 40 41 41 41 41 41 40 40 39 38 37 38 38 37 37 37 36 35 35 35 35 35 35 36 36 36 35 35 35 35 33 32
27 29 31 32 34 36 37 38 40 41 42 43 44 44 44 44 44 43 43 43 42 42 42 42 42 42 42 41 40 40 39 39 39 38 39 39 39 39 38 38 38 37 35
29 31 32 33 35 37 39 40 41 43 44 45 45 46 45 45 46 46 46 46 46 46 46 46 46 47 47 47 47 46 44 43 43 43 42 42 42 41 42 42 41 40 38
30 32 33 35 37 39 41 42 43 44 45 45 46 46 46 46 47 47 47 48 48 49 49 50 50 52 53 53 54 53 52 50 49 47 46 47 46 45 45 45 44 43 41
32 33 35 37 39 41 42 43 44 45 45 46 47 47 47 48 48 48 49 49 50 50 51 53 53 54 56 57 58 59 59 57 56 54 53 51 50 49 48 48 47 46 45
33 35 38 40 42 43 44 44 45 46 47 47 47 48 48 49 49 49 49 50 51 51 52 54 55 56 58 60 61 62 63 63 62 60 59 57 54 53 52 51 50 49 48
36 38 40 42 44 45 45 46 47 47 47 48 48 48 49 49 50 50 51 52 53 53 54 54 56 58 60 61 63 64 65 66 66 65 65 63 60 58 56 55 54 53 51
38 41 43 45 46 46 47 47 47 48 48 49 49 50 50 50 51 51 52 52 53 54 54 54 55 57 59 61 63 65 66 68 69 69 68 67 66 64 61 60 58 56 54
41 43 45 46 46 47 48 48 48 49 50 50 51 51 51 51 51 52 52 52 52 52 52 53 53 54 56 57 59 62 64 67 68 69 69 69 69 69 68 66 64 62 59
43 45 46 47 47 48 48 48 48 50 51 51 51 51 50 51 51 52 52 51 51 51 51 51 51 51 51 52 53 55 58 61 63 65 67 68 68 69 70 68 67 67 64
45 46 47 48 48 48 48 48 49 51 51 51 50 51 51 51 51 51 50 50 49 49 48 48 48 48 49 49 49 50 51 53 55 58 62 65 66 66 67 68 67 67 67
47 47 48 48 48 48 49 49 50 51 51 50 50 50 51 50 49 49 48 47 46 46 46 46 46 47 48 49 48 47 47 47 47 49 52 57 61 63 65 66 67 67 67
48 48 48 48 48 49 50 50 51 51 50 50 50 50 50 49 47 46 45 44 43 43 43 44 44 44 45 46 46 46 46 44 43 43 44 46 51 55 58 62 62 62 66
49 49 49 49 49 50 50 51 51 50 50 50 50 50 49 48 46 44 41 40 39 39 39 40 40 41 41 43 44 44 44 43 41 40 40 41 42 46 49 52 55 57 60
49 48 48 48 49 50 50 50 50 50 50 50 49 49 47 45 43 40 38 36 35 34 34 35 36 37 38 40 41 42 43 41 40 39 38 38 38 40 42 44 48 52 55
49 48 48 48 49 49 50 49 49 50 49 49 49 48 46 44 41 37 34 32 30 29 29 30 31 33 36 38 39 40 41 40 39 38 37 36 36 37 38 39 42 46 51
49 48 47 47 48 49 49 49 49 49 49 48 47 46 44 41 37 33 30 28 25 24 24 25 27 29 31 35 37 38 39 39 38 37 36 35 34 33 35 37 39 42 46
49 48 47 47 48 49 49 49 49 49 48 47 45 44 42 39 35 31 27 23 20 19 19 20 22 25 27 31 34 36 36 36 36 35 35 33 32 31 32 34 36 39 42
49 48 47 47 48 48 48 49 48 48 48 46 44 42 40 37 32 28 24 19 15 14 14 15 18 21 23 26 29 32 34 34 34 34 33 32 31 30 30 31 32 34 38
48 48 47 47 47 47 47 47 47 47 46 45 43 40 39 35 30 26 21 17 13 11 10 11 13 16 20 23 25 28 30 31 31 32 31 31 29 28 28 30 32 32 35
48 47 46 46 46 46 46 46 46 45 45 44 41 39 37 33 28 23 20 17 13 9 6 6 10 13 17 21 23 25 27 28 29 29 29 29 28 27 27 29 31 32 34
Wind_Direction
270 271 275 278 280 283 285 285 287 289 290 290 291 291 292 294 292 292 291 286 279 270 266 259 258 251 248 248 246 248 248 247 243 243 243 242 241 239 238 238 240 243 245
275 277 280 282 283 286 288 289 289 289 290 290 292 293 294 295 292 291 292 287 278 269 265 260 254 250 248 247 247 247 250 245 242 242 242 241 239 237 236 237 239 240 242
279 282 286 287 287 288 290 291 291 291 292 292 292 293 293 294 294 292 291 288 282 274 268 262 257 254 251 251 249 248 249 245 243 241 241 239 238 236 235 236 237 238 240
287 288 290 292 292 292 293 294 294 293 292 293 293 292 291 290 290 290 288 286 282 276 270 265 261 255 252 249 249 249 247 244 242 242 241 238 237 235 235 235 236 236 237
294 294 295 296 296 296 295 296 295 294 293 293 292 291 290 289 288 286 284 281 277 271 267 263 260 258 254 250 249 248 245 244 243 242 241 239 237 236 235 235 235 235 236
299 297 298 299 299 298 298 297 296 295 294 293 292 291 289 287 285 283 280 277 274 269 265 263 260 257 255 251 250 248 246 245 243 243 242 240 239 237 236 237 236 236 235
302 301 301 301 300 300 299 298 297 296 295 293 291 290 288 286 284 281 278 275 272 268 264 261 258 256 254 251 250 249 247 246 245 244 242 240 240 238 237 237 238 237 236
304 305 305 304 303 302 301 300 298 296 294 293 291 290 288 285 282 280 277 274 271 267 263 260 257 255 253 251 250 249 248 247 246 245 244 242 241 240 239 238 238 238 237
309 309 308 307 306 305 303 301 300 298 296 294 292 290 288 285 282 279 277 274 270 267 263 260 257 255 252 250 249 248 247 247 246 246 244 243 242 240 239 238 238 238 237
312 311 311 309 308 306 305 303 301 299 297 295 294 292 290 287 284 281 278 275 271 268 264 261 258 255 253 251 249 247 246 246 246 245 244 243 241 240 239 239 238 237 237
315 314 313 312 310 309 307 306 304 303 301 299 297 295 292 290 286 283 279 276 273 270 266 262 259 256 254 251 250 248 246 245 244 244 244 242 242 241 240 238 237 237 237
317 316 315 314 313 312 311 310 309 307 304 301 299 297 294 291 288 285 282 278 275 272 268 265 261 258 255 252 250 248 246 245 244 243 242 241 241 241 240 238 238 237 236
319 318 318 317 316 315 314 312 311 308 306 303 301 299 296 293 289 286 283 280 277 273 271 267 263 259 255 252 250 248 246 245 243 242 241 240 239 239 238 238 237 237 237
322 321 321 320 318 317 316 315 313 310 308 305 303 301 298 295 292 288 285 281 277 273 270 267 264 261 257 253 250 248 246 244 243 242 241 240 240 240 239 238 237 237 237
324 323 323 322 320 319 318 317 315 313 311 308 306 303 301 298 295 291 286 281 277 273 270 267 264 260 257 253 251 248 246 244 243 242 241 240 240 239 239 238 238 237 236
327 325 324 323 322 321 321 320 318 316 314 311 309 306 304 301 297 293 288 282 277 272 269 266 261 257 254 252 249 246 245 243 242 242 241 240 240 239 239 238 238 237 236
328 327 326 325 324 324 323 322 321 319 317 315 313 310 308 305 301 296 291 285 278 272 266 262 258 255 252 249 246 244 242 241 240 240 241 241 241 240 240 239 238 236 235
329 328 328 327 327 326 326 325 324 323 321 319 316 313 311 308 305 299 294 287 279 273 267 261 256 253 249 247 243 240 238 237 237 237 237 239 240 240 240 239 238 237 234
331 331 330 330 330 329 329 328 327 326 324 322 320 318 315 311 307 303 296 289 282 274 267 260 254 249 247 244 241 238 235 234 234 234 236 237 238 239 239 238 237 235 233
333 333 332 332 332 332 332 331 330 329 328 326 324 322 319 316 311 306 299 292 284 274 266 259 252 247 244 241 239 235 232 231 231 232 235 236 237 239 239 238 236 234 231
335 335 334 334 334 335 334 334 333 332 331 330 329 327 325 321 317 311 304 296 286 275 266 258 252 247 241 236 234 232 230 229 229 231 233 235 237 239 238 237 235 233 229
336 336 336 336 336 336 337 337 336 336 335 334 333 332 330 328 325 319 311 301 289 279 267 257 249 244 237 232 230 230 229 227 227 229 232 234 237 239 238 237 235 230 225
337 337 337 337 338 338 339 339 339 339 339 339 338 337 336 334 330 324 318 309 295 282 269 257 247 239 233 229 227 226 226 225 225 228 231 233 235 237 238 236 234 229 223
338 339 339 339 339 340 340 341 341 341 342 343 342 342 341 339 336 333 328 319 306 288 273 256 244 236 229 225 223 222 222 222 223 226 229 232 232 233 235 232 228 223 218
339 340 340 340 341 342 343 344 344 344 346 346 346 347 347 347 344 342 338 332 320 302 277 253 239 228 221 218 216 216 216 218 221 223 226 227 228 230 230 227 221 216 215
340 341 341 342 342 343 345 346 347 348 349 350 350 351 353 354 353 352 351 346 338 320 288 245 225 216 212 211 211 211 212 215 219 222 222 223 225 228 227 223 219 215 213
Height
5864 5863 5862 5860 5858 5855 5852 5849 5846 5843 5840 5837 5833 5829 5826 5823 5820 5817 5813 5810 5808 5808 5808 5809 5810 5811 5814 5816 5818 5820 5822 5824 5826 5828 5829 5831 5833 5835 5837 5840 5842 5843 5845
5858 5856 5854 5852 5849 5846 5843 5840 5837 5834 5831 5828 5824 5821 5818 5815 5812 5809 5807 5804 5802 5801 5801 5803 5803 5805 5806 5808 5810 5812 5814 5816 5818 5821 5823 5825 5828 5829 5831 5834 5836 5838 5839
5851 5849 5847 5844 5841 5838 5835 5832 5828 5825 5822 5819 5816 5813 5810 5807 5805 5803 5801 5799 5797 5796 5795 5796 5797 5798 5799 5801 5803 5805 5807 5808 5811 5813 5815 5818 5820 5823 5825 5827 5830 5832 5834
5845 5842 5840 5837 5833 5830 5827 5824 5820 5817 5814 5810 5807 5804 5801 5799 5797 5795 5793 5792 5790 5789 5789 5789 5790 5790 5791 5793 5795 5797 5798 5800 5802 5805 5807 5810 5812 5815 5818 5821 5823 5826 5828
5838 5836 5833 5829 5826 5823 5819 5816 5812 5809 5805 5802 5798 5795 5792 5790 5788 5786 5784 5783 5782 5781 5780 5780 5781 5782 5783 5784 5786 5788 5790 5792 5794 5796 5799 5801 5804 5807 5810 5813 5816 5819 5821
5833 5829 5826 5823 5819 5815 5811 5807 5803 5800 5796 5792 5788 5785 5782 5779 5777 5775 5774 5772 5772 5771 5771 5771 5771 5772 5773 5775 5776 5778 5780 5782 5785 5787 5790 5793 5796 5798 5801 5805 5808 5811 5814
5827 5824 5820 5816 5812 5807 5803 5798 5794 5790 5785 5781 5777 5774 5771 5767 5765 5763 5761 5760 5759 5759 5759 5759 5760 5761 5762 5764 5766 5767 5770 5772 5775 5777 5780 5783 5786 5789 5792 5796 5799 5802 5806
5821 5817 5813 5808 5803 5798 5793 5788 5784 5779 5774 5770 5766 5762 5758 5755 5752 5749 5747 5746 5745 5745 5745 5745 5746 5748 5749 5751 5753 5755 5758 5760 5763 5766 5769 5772 5775 5779 5782 5786 5790 5794 5797
5815 5810 5805 5800 5795 5789 5784 5778 5773 5767 5762 5757 5752 5748 5745 5741 5737 5735 5733 5731 5729 5729 5729 5729 5730 5732 5734 5735 5738 5740 5743 5747 5750 5753 5757 5760 5764 5767 5771 5775 5780 5784 5788
5807 5802 5797 5791 5785 5779 5773 5767 5761 5755 5750 5744 5739 5734 5730 5726 5722 5719 5716 5714 5713 5712 5712 5712 5713 5714 5716 5718 5721 5724 5727 5731 5735 5739 5743 5746 5750 5755 5759 5763 5768 5773 5777
5800 5794 5788 5782 5775 5769 5762 5755 5749 5743 5737 5730 5725 5719 5714 5709 5705 5702 5699 5696 5694 5693 5693 5693 5694 5695 5697 5699 5702 5705 5709 5714 5718 5722 5727 5731 5735 5740 5745 5750 5755 5761 5766
5792 5786 5779 5772 5765 5758 5750 5743 5736 5729 5722 5716 5710 5704 5698 5693 5688 5684 5681 5678 5675 5674 5673 5673 5673 5675 5677 5679 5682 5685 5689 5694 5699 5704 5709 5715 5719 5724 5730 5735 5741 5748 5754
5784 5777 5770 5762 5754 5746 5738 5731 5724 5716 5708 5701 5695 5688 5682 5676 5670 5666 5662 5658 5656 5654 5653 5652 5652 5653 5655 5658 5661 5664 5669 5674 5679 5684 5690 5696 5701 5708 5714 5720 5727 5733 5740
5775 5767 5759 5751 5743 5734 5727 5719 5711 5702 5694 5686 5679 5671 5664 5658 5652 5647 5642 5639 5636 5634 5632 5631 5631 5632 5634 5637 5640 5643 5648 5653 5659 5665 5671 5677 5683 5690 5697 5703 5711 5718 5725
5766 5758 5749 5741 5732 5723 5715 5706 5698 5689 5679 5671 5663 5655 5647 5640 5633 5627 5622 5618 5616 5614 5612 5612 5612 5613 5615 5618 5621 5624 5628 5633 5639 5645 5651 5658 5664 5671 5678 5686 5694 5702 5710
5757 5748 5739 5730 5721 5712 5704 5694 5685 5675 5665 5655 5646 5638 5630 5622 5614 5608 5602 5599 5596 5594 5593 5593 5593 5595 5597 5600 5604 5607 5611 5616 5622 5627 5633 5639 5646 5653 5660 5668 5676 5685 5694
5748 5739 5729 5720 5711 5701 5692 5682 5672 5661 5651 5641 5631 5622 5613 5604 5596 5589 5584 5580 5576 5575 5574 5575 5576 5578 5580 5583 5587 5591 5596 5601 5607 5611 5617 5622 5628 5635 5642 5650 5658 5667 5677
5739 5729 5720 5710 5700 5690 5680 5670 5659 5648 5638 5627 5617 5607 5597 5588 5580 5572 5566 5562 5558 5557 5557 5557 5558 5561 5564 5567 5572 5576 5582 5588 5593 5599 5603 5608 5614 5620 5627 5634 5642 5651 5661
5730 5720 5710 5700 5690 5680 5669 5659 5647 5636 5625 5614 5603 5593 5582 5572 5564 5557 5550 5546 5542 5540 5540 5541 5542 5545 5549 5553 5557 5563 5569 5575 5582 5587 5592 5597 5602 5607 5613 5620 5629 5636 5645
5722 5712 5702 5691 5681 5670 5659 5648 5637 5626 5614 5603 5591 5580 5569 5558 5550 5542 5536 5531 5527 5526 5525 5526 5528 5531 5535 5539 5544 5550 5557 5564 5571 5577 5582 5587 5592 5596 5601 5607 5614 5621 5629
5714 5704 5693 5683 5672 5661 5651 5639 5628 5616 5604 5592 5580 5568 5557 5546 5537 5529 5523 5518 5515 5513 5513 5514 5516 5519 5523 5527 5533 5539 5546 5554 5560 5566 5572 5577 5582 5586 5591 5596 5602 5608 5616
5707 5696 5686 5675 5664 5653 5642 5631 5619 5607 5595 5583 5571 5559 5547 5536 5527 5519 5512 5507 5504 5502 5502 5504 5506 5508 5512 5517 5523 5529 5537 5544 5551 5557 5563 5568 5573 5577 5582 5587 5592 5598 5605
5700 5689 5679 5668 5657 5646 5635 5623 5612 5599 5587 5575 5563 5551 5539 5529 5519 5511 5505 5499 5496 5495 5494 5495 5497 5500 5504 5508 5514 5521 5528 5535 5542 5549 5554 5559 5564 5569 5573 5577 5582 5588 5595
5693 5683 5672 5662 5651 5640 5628 5616 5605 5592 5580 5569 5557 5545 5534 5523 5514 5506 5500 5495 5491 5489 5489 5489 5491 5494 5497 5502 5507 5514 5521 5528 5534 5541 5547 5552 5557 5561 5565 5569 5574 5580 5587
5687 5676 5666 5656 5645 5634 5623 5611 5599 5587 5575 5564 5552 5541 5530 5519 5510 5503 5497 5492 5489 5486 5485 5485 5486 5489 5493 5497 5502 5508 5515 5522 5528 5534 5540 5545 5550 5554 5558 5562 5567 5573 5580
5681 5671 5661 5650 5640 5629 5618 5607 5595 5584 5572 5560 5549 5538 5528 5518 5509 5502 5496 5491 5487 5485 5483 5483 5484 5486 5490 5494 5499 5505 5511 5517 5522 5528 5533 5538 5543 5548 5552 5556 5561 5567 5574